[[{"header":{"parameterUnit":"m.s-1","parameterCategory":1,"la1":30.2991,"la2":30.254,"lo1":-89.0895,"lo2":-89.0444,"dy":0.0017,"dx":0.0017,"nx":28,"ny":28,"refTime":"2023-10-16T09:00:00:Z","depth":0,"parameterNumber":2,"parameterNumberName":"U-component_of_WINDS"},"data":[0,0,0,0,0,0,0,0,0,0,0,0,0,0,0,0,0,0,0,0,0,0,0,0,0,0,0,0,0,0,0,0,0,0,0,0,0,0,0,0,0,0,0,0,0,0,0,0,0,0,0,0,0,0,0,0,0,0,2.7888,2.7887,0,2.7853,2.7852,2.7852,2.78,2.7799,2.7798,2.7797,2.776,2.776,2.776,0,0,0,0,0,0,0,0,0,0,0,0,0,2.791,2.791,2.7888,2.7887,2.7887,2.7853,2.7852,2.7852,2.78,2.7799,2.7798,2.7797,2.776,2.776,2.776,0,0,0,0,0,0,0,0,0,0,0,0,0,2.789,2.791,2.7888,2.7857,2.7854,2.7853,2.7852,2.7852,2.7801,2.7799,2.7798,2.7797,2.776,2.776,2.776,2.7785,0,0,2.7759,2.7759,0,0,0,0,0,0,0,0,2.7891,2.7889,2.7862,2.7859,2.7856,2.7829,2.7846,2.7829,2.7801,2.7821,2.7797,2.7796,2.7784,2.7782,2.7778,2.7784,2.7782,2.7759,2.7759,2.7759,2.7759,0,0,0,0,0,0,0,2.7893,2.7891,2.7874,2.7862,2.7858,2.7845,2.7841,2.7843,2.781,2.7819,2.7815,2.7812,2.7782,2.7779,2.7777,2.7781,2.7759,2.7759,2.7759,2.7759,2.7806,2.7807,0,0,0,0,0,0,2.7899,2.7892,2.7875,2.7873,2.7871,2.7846,2.7841,2.7839,2.781,2.7805,2.7813,2.7809,2.778,2.7777,2.7775,2.7803,2.7759,2.7759,2.7758,2.7804,2.7806,2.7808,0,0,0,0,0,0,2.79,2.7898,2.7876,2.7881,2.7878,2.7847,2.7845,2.7839,2.7835,2.7806,2.78,2.7815,2.7778,2.7776,2.7783,2.7801,2.7759,2.7758,2.7803,2.7805,2.7807,2.7858,0,0,0,0,0,0,2.79,2.7898,2.7908,2.7882,2.7878,2.7885,2.7846,2.7839,2.7835,2.783,2.7806,2.7801,2.7777,2.7784,2.7783,2.78,2.7758,2.7801,2.7804,2.7806,2.7854,2.7862,2.7868,0,0,0,0,0,2.7901,2.7923,2.7908,2.7907,2.7889,2.7886,2.7883,2.7856,2.7837,2.7846,2.7827,2.7802,2.78,2.7785,2.7784,2.78,2.78,2.7803,2.7806,2.7852,2.786,2.7867,0,0,0,0,0,0,2.7951,2.7919,2.7902,2.7917,2.7905,2.7877,2.7888,2.7866,2.7859,2.7854,2.7821,2.7816,2.7827,2.7815,2.7799,2.7824,2.7796,2.7799,2.7831,2.7839,2.7845,2.7847,2.7758,0,0,0,0,0,2.7964,2.7965,2.7937,2.7952,2.7947,2.7919,2.7916,2.7897,2.7883,2.7877,2.7858,2.7846,2.7842,2.784,2.7835,2.7853,2.7847,2.7864,2.7871,2.7876,2.7879,2.7887,2.7894,2.7818,2.7818,2.7818,0,0,2.799,2.7972,2.7975,2.7961,2.795,2.7951,2.7914,2.7917,2.7918,2.7877,2.7883,2.7869,2.7853,2.7866,2.787,2.7856,2.7899,2.788,2.7885,2.7884,2.7891,2.7898,2.7905,2.782,2.782,2.7819,0,0,2.8037,2.8025,2.8036,2.8025,2.8008,2.7989,2.7992,2.7969,2.7958,2.7964,2.7933,2.7934,2.7928,2.7918,2.7911,2.7957,2.7933,2.7957,2.7989,2.7998,2.8004,2.8009,2.8024,2.803,2.7959,2.796,2.796,0,2.8071,2.8072,2.8044,2.8049,2.8044,2.8008,2.8019,2.801,2.7992,2.799,2.7974,2.7966,2.7953,2.7963,2.7974,2.7971,2.7972,2.7958,2.8006,2.801,2.8015,2.8029,2.8035,2.7962,2.7962,2.7962,2.7961,0,2.8114,2.8115,2.8126,2.811,2.8107,2.8115,2.8088,2.8088,2.8069,2.8053,2.8059,2.8042,2.8032,2.8034,2.8015,2.8041,2.8032,2.8012,2.7983,2.8025,2.8038,2.8043,2.7966,2.7965,2.7965,2.7964,0,0,2.8189,2.8159,2.8163,2.8156,2.8135,2.8136,2.8143,2.8134,2.8134,2.8124,2.8128,2.8125,2.8106,2.81,2.808,2.8088,2.8124,2.8066,2.8065,2.8076,2.815,2.8164,2.8171,2.8109,2.811,2.8111,2.8151,0,2.8231,2.824,2.8216,2.8231,2.8232,2.8199,2.8205,2.8193,2.8179,2.8177,2.816,2.8158,2.8134,2.8129,2.8136,2.8118,2.8138,2.8115,2.8111,2.8111,2.8114,2.8178,2.8193,2.8232,2.8156,2.8157,2.8157,0,2.828,2.8273,2.8288,2.8268,2.8267,2.8273,2.8263,2.8262,2.8249,2.8237,2.8231,2.8208,2.8213,2.8187,2.8193,2.8178,2.8176,2.8167,2.8168,2.8164,2.8135,2.8175,2.8243,2.8249,2.8165,2.8164,2.8164,0,2.8332,2.8326,2.8334,2.8329,2.8306,2.831,2.8301,2.8286,2.8282,2.8275,2.8272,2.8265,2.8261,2.8256,2.8232,2.8216,2.8241,2.8213,2.823,2.8231,2.8235,2.8235,2.8303,2.8237,2.8237,2.8237,2.8237,0,2.838,2.839,2.8357,2.8362,2.8373,2.8346,2.8357,2.8344,2.8332,2.8333,2.8306,2.8308,2.8277,2.8276,2.8258,2.8265,2.8264,2.8254,2.8249,2.8256,2.8257,2.8252,2.8248,2.8238,2.8238,2.8238,2.8237,0,2.8438,2.8416,2.8423,2.8401,2.8396,2.8404,2.8385,2.8389,2.8373,2.8376,2.8375,2.835,2.8347,2.8324,2.8316,2.8304,2.8317,2.8308,2.8322,2.8318,2.8336,2.8334,2.8402,2.8409,2.8341,2.8341,2.8342,0,2.8468,2.8476,2.8455,2.8454,2.8446,2.8446,2.8442,2.8417,2.8415,2.84,2.8406,2.8401,2.8396,2.8393,2.8374,2.8368,2.8357,2.8381,2.8355,2.8362,2.8355,2.8354,2.8354,2.8386,2.8386,2.8387,2.8388,0,2.8525,2.8515,2.8511,2.8505,2.8502,2.8495,2.8487,2.8488,2.846,2.8459,2.8456,2.8453,2.8445,2.8441,2.8431,2.8421,2.84,2.8397,2.84,2.8406,2.8413,2.8408,2.8334,2.8394,2.8394,2.8393,2.8393,2.8393,2.8569,2.8574,2.856,2.8558,2.8549,2.8542,2.8544,2.853,2.8527,2.8519,2.8505,2.8504,2.8491,2.8477,2.8469,2.8468,2.8455,2.846,2.8461,2.8462,2.8465,2.8415,2.8466,2.8466,2.8466,2.8465,2.8465,0,2.8623,2.8613,2.8611,2.8601,2.8599,2.858,2.8571,2.857,2.857,2.856,2.8556,2.8553,2.8549,2.853,2.8524,2.8527,2.8517,2.8526,2.8524,2.8522,2.8478,2.8475,2.8534,2.8534,2.8534,2.8534,2.8534,2.8534,2.8651,2.8658,2.8646,2.8649,2.8638,2.8638,2.8634,2.8628,2.8619,2.8617,2.8614,2.8603,2.8589,2.8582,2.8577,2.8572,2.857,2.8582,2.8574,2.8532,2.8525,2.8519,2.8516,2.8583,2.8583,2.8618,2.8618,2.8618]},{"header":{"parameterUnit":"m.s-1","parameterCategory":1,"la1":30.2991,"la2":30.254,"lo1":-89.0895,"lo2":-89.0444,"dy":0.0017,"dx":0.0017,"nx":28,"ny":28,"refTime":"2023-10-16T09:00:00:Z","depth":0,"parameterNumber":3,"parameterNumberName":"V-component_of_WINDS"},"data":[0,0,0,0,0,0,0,0,0,0,0,0,0,0,0,0,0,0,0,0,0,0,0,0,0,0,0,0,0,0,0,0,0,0,0,0,0,0,0,0,0,0,0,0,0,0,0,0,0,0,0,0,0,0,0,0,0,0,-6.1717,-6.1719,0,-6.1926,-6.1928,-6.1931,-6.1868,-6.1864,-6.1859,-6.1855,-6.2068,-6.2078,-6.2087,0,0,0,0,0,0,0,0,0,0,0,0,0,-6.1263,-6.1272,-6.1716,-6.1719,-6.1722,-6.1925,-6.1928,-6.1931,-6.1869,-6.1864,-6.1858,-6.1853,-6.2065,-6.2077,-6.2088,0,0,0,0,0,0,0,0,0,0,0,0,0,-6.1465,-6.1275,-6.1716,-6.1715,-6.1717,-6.1925,-6.1928,-6.1932,-6.187,-6.1863,-6.1857,-6.1851,-6.2061,-6.2075,-6.209,-6.2311,0,0,-6.2134,-6.2141,0,0,0,0,0,0,0,0,-6.1454,-6.1482,-6.1713,-6.1716,-6.1718,-6.1864,-6.1847,-6.2059,-6.1872,-6.1812,-6.1855,-6.1848,-6.2006,-6.2024,-6.2078,-6.2321,-6.233,-6.2136,-6.2145,-6.2151,-6.2155,0,0,0,0,0,0,0,-6.144,-6.1472,-6.1799,-6.1716,-6.172,-6.1704,-6.1726,-6.1887,-6.1943,-6.1817,-6.1813,-6.1838,-6.2006,-6.2064,-6.2082,-6.2333,-6.2135,-6.2148,-6.2157,-6.2163,-6.277,-6.2777,0,0,0,0,0,0,-6.1424,-6.1461,-6.1793,-6.1805,-6.1567,-6.1718,-6.1742,-6.1824,-6.1941,-6.1952,-6.1844,-6.1835,-6.2042,-6.2065,-6.209,-6.2358,-6.2151,-6.2164,-6.2173,-6.2763,-6.2771,-6.2779,0,0,0,0,0,0,-6.1414,-6.1454,-6.1784,-6.1632,-6.1673,-6.1733,-6.1825,-6.1831,-6.189,-6.1961,-6.1971,-6.1893,-6.2038,-6.2069,-6.2257,-6.2364,-6.2171,-6.2184,-6.2754,-6.2765,-6.2775,-6.2895,0,0,0,0,0,0,-6.1402,-6.1451,-6.1535,-6.1635,-6.1682,-6.1948,-6.1832,-6.184,-6.1915,-6.1905,-6.201,-6.2021,-6.2035,-6.2235,-6.2271,-6.2381,-6.2196,-6.2744,-6.2759,-6.2772,-6.2881,-6.2908,-6.2931,0,0,0,0,0,-6.1386,-6.156,-6.154,-6.158,-6.1788,-6.1954,-6.1981,-6.1994,-6.1924,-6.201,-6.2056,-6.2018,-6.2347,-6.2255,-6.2295,-6.2411,-6.2738,-6.2755,-6.2771,-6.287,-6.2903,-6.2931,0,0,0,0,0,0,-6.147,-6.1573,-6.1552,-6.1763,-6.1851,-6.1943,-6.2052,-6.2028,-6.2137,-6.2124,-6.2135,-6.2159,-6.2352,-6.24,-6.2296,-6.2632,-6.2532,-6.2557,-6.2594,-6.2625,-6.265,-6.2635,-6.2208,0,0,0,0,0,-6.1514,-6.164,-6.1723,-6.1901,-6.1946,-6.1992,-6.2065,-6.2068,-6.2158,-6.2195,-6.2255,-6.2344,-6.2468,-6.2549,-6.2667,-6.2888,-6.2911,-6.2987,-6.3012,-6.3032,-6.3054,-6.3177,-6.3213,-6.2834,-6.2834,-6.2833,0,0,-6.1605,-6.1676,-6.1755,-6.192,-6.1988,-6.212,-6.2023,-6.2165,-6.2263,-6.2216,-6.2398,-6.2445,-6.2546,-6.2752,-6.2846,-6.2798,-6.3164,-6.3053,-6.3069,-6.308,-6.3198,-6.3234,-6.3266,-6.2845,-6.2843,-6.2841,0,0,-6.1837,-6.1904,-6.2061,-6.2132,-6.2236,-6.2266,-6.2304,-6.2401,-6.2431,-6.2614,-6.2582,-6.2698,-6.291,-6.2984,-6.3049,-6.3313,-6.3283,-6.3351,-6.3482,-6.3602,-6.3631,-6.3658,-6.3754,-6.3788,-6.3372,-6.3373,-6.3373,0,-6.1937,-6.2133,-6.2144,-6.2291,-6.2365,-6.2329,-6.2489,-6.2557,-6.2695,-6.2747,-6.2692,-6.2959,-6.3024,-6.3248,-6.3313,-6.3366,-6.3411,-6.3339,-6.3626,-6.3653,-6.3678,-6.377,-6.3805,-6.338,-6.3379,-6.3379,-6.3378,0,-6.2251,-6.2388,-6.2503,-6.2638,-6.2725,-6.2877,-6.2912,-6.2999,-6.2995,-6.303,-6.3218,-6.3295,-6.3429,-6.3482,-6.3478,-6.3707,-6.3674,-6.3622,-6.3522,-6.3722,-6.3808,-6.3843,-6.3391,-6.3389,-6.3386,-6.3384,0,0,-6.2543,-6.2684,-6.2726,-6.2788,-6.2902,-6.3008,-6.3159,-6.3291,-6.3366,-6.3463,-6.3591,-6.3772,-6.3726,-6.38,-6.3805,-6.391,-6.4117,-6.3846,-6.3848,-6.3895,-6.4375,-6.4414,-6.4455,-6.4097,-6.4103,-6.4109,-6.4367,0,-6.2787,-6.3053,-6.3068,-6.331,-6.3438,-6.3407,-6.3539,-6.3624,-6.3661,-6.3775,-6.3816,-6.3946,-6.3874,-6.3919,-6.4022,-6.407,-6.4213,-6.4051,-6.4217,-6.4223,-6.4194,-6.45,-6.4541,-6.4781,-6.4401,-6.4407,-6.4411,0,-6.3106,-6.3214,-6.347,-6.3568,-6.3622,-6.374,-6.3863,-6.3972,-6.4068,-6.4088,-6.4173,-6.4163,-6.4319,-6.4214,-6.443,-6.4319,-6.4388,-6.4422,-6.4432,-6.4449,-6.433,-6.4526,-6.4858,-6.4895,-6.4464,-6.4459,-6.4456,0,-6.3296,-6.3505,-6.3685,-6.3739,-6.3857,-6.3941,-6.3995,-6.4084,-6.4163,-6.4271,-6.4322,-6.4446,-6.4515,-6.4611,-6.4636,-6.4556,-6.4853,-6.4748,-6.4875,-6.4875,-6.4939,-6.4935,-6.5289,-6.4981,-6.4981,-6.498,-6.4979,0,-6.3567,-6.3725,-6.3772,-6.3883,-6.4059,-6.4076,-6.425,-6.4297,-6.4378,-6.4498,-6.4478,-6.4592,-6.4617,-6.4736,-6.4756,-6.4933,-6.4963,-6.4985,-6.4989,-6.4988,-6.4986,-6.5034,-6.5019,-6.499,-6.4988,-6.4986,-6.4984,0,-6.3809,-6.3846,-6.4041,-6.4138,-6.4166,-6.4292,-6.4375,-6.4482,-6.4518,-6.4671,-6.4707,-6.4764,-6.4903,-6.4937,-6.5102,-6.5116,-6.5326,-6.5313,-6.5294,-6.5294,-6.5419,-6.5408,-6.5818,-6.5873,-6.5528,-6.5531,-6.5534,0,-6.398,-6.4101,-6.4212,-6.4291,-6.4349,-6.4477,-6.4558,-6.4579,-6.4664,-6.4784,-6.4877,-6.5014,-6.5125,-6.5348,-6.5404,-6.5531,-6.5522,-6.5657,-6.5541,-6.5537,-6.5527,-6.552,-6.5533,-6.5679,-6.5683,-6.5686,-6.5688,0,-6.4281,-6.4295,-6.4412,-6.4538,-6.4635,-6.4735,-6.483,-6.4896,-6.493,-6.5028,-6.517,-6.5256,-6.5426,-6.5563,-6.5691,-6.5746,-6.5725,-6.5724,-6.5761,-6.5762,-6.5747,-6.5759,-6.5356,-6.5715,-6.5712,-6.571,-6.5709,-6.5708,-6.4495,-6.4602,-6.4697,-6.4829,-6.4903,-6.4993,-6.5099,-6.5149,-6.5268,-6.5409,-6.5414,-6.557,-6.5664,-6.5835,-6.5897,-6.602,-6.5979,-6.6031,-6.6045,-6.6058,-6.607,-6.5727,-6.6043,-6.6042,-6.6042,-6.6041,-6.604,0,-6.4797,-6.4857,-6.4978,-6.5113,-6.5218,-6.5188,-6.5292,-6.5382,-6.5519,-6.561,-6.572,-6.5885,-6.6018,-6.6085,-6.6217,-6.6303,-6.6296,-6.6337,-6.6332,-6.6345,-6.6098,-6.6054,-6.634,-6.634,-6.634,-6.634,-6.634,-6.634,-6.4966,-6.5146,-6.5171,-6.5389,-6.5447,-6.56,-6.5663,-6.5746,-6.5819,-6.6004,-6.6115,-6.6158,-6.624,-6.6379,-6.65,-6.6516,-6.6567,-6.6614,-6.6625,-6.6393,-6.6362,-6.6333,-6.6292,-6.6624,-6.6624,-6.6862,-6.6865,-6.6866]}]]